Weather History for Beaver Island, MI

Change the Weather History Date:

Tuesday, October 29, 2013

  Actual Average Record
Temperature  
Mean Temperature 30 °F -  
Max Temperature 39 °F 51 °F 70 °F (1989)
Min Temperature 22 °F 37 °F 22 °F (2013)
Degree Days  
Heating Degree Days 34    
Moisture  
Dew Point 28 °F    
Average Humidity 84    
Maximum Humidity 96    
Minimum Humidity 61    
Precipitation  
Precipitation 0.00 in - - ()
Sea Level Pressure  
Sea Level Pressure 30.39 in    
Wind  
Wind Speed 1 mph (SE)    
Max Wind Speed 9 mph    
Max Gust Speed -    
Visibility 10 miles    
Events Rain    
Averages and records for this station are not official NWS values.
T = Trace of Precipitation, MM = Missing Value Source: NWS Daily Summary

Daily Weather History Graph

Daily Weather History Graph

Search for Another Location

Airport:

Trip Planner

Search our weather history database for the weather conditions in past years. The results will help you decide how hot, cold, wet, or windy it might be!

Date:

Astronomy

Oct. 29, 2013 Rise Set
Actual Time 8:18 AM EDT 6:32 PM EDT
Civil Twilight 7:47 AM EDT 7:03 PM EDT
Nautical Twilight 7:12 AM EDT 7:38 PM EDT
Astronomical Twilight 6:37 AM EDT 8:13 PM EDT
Moon 2:52 AM EDT (10/29) 3:59 PM EDT (10/29)
Length of Visible Light 11h 16m
Length of Day
10h 14m
Waning Crescent, 25% of the Moon is Illuminated
Oct 29
Waning Crescent
Nov 3
New
Nov 10
First Quarter
Nov 17
Full
Nov 25
Last Quarter

Hourly Weather History & Observations

Time (EDT) Temp. Windchill Dew Point Humidity Pressure Visibility Wind Dir Wind Speed Gust Speed Precip Events Conditions
12:15 AM 24.8 °F - 23.4 °F 94% 30.48 in 10.0 mi Calm Calm - N/A   Clear
12:36 AM 25.5 °F - 23.5 °F 92% 30.48 in 10.0 mi Calm Calm - N/A   Clear
12:55 AM 24.4 °F - 22.5 °F 92% 30.48 in 10.0 mi Calm Calm - N/A   Clear
1:15 AM 24.6 °F - 22.8 °F 93% 30.48 in 10.0 mi Calm Calm - N/A   Clear
1:36 AM 24.3 °F - 22.8 °F 94% 30.48 in 10.0 mi Calm Calm - N/A   Clear
1:55 AM 24.1 °F - 21.9 °F 91% 30.48 in 10.0 mi Calm Calm - N/A   Clear
2:16 AM 24.4 °F - 23.0 °F 94% 30.48 in 10.0 mi Calm Calm - N/A   Clear
2:36 AM 23.4 °F - 22.1 °F 95% 30.48 in 10.0 mi Calm Calm - N/A   Clear
2:55 AM 24.4 °F - 23.2 °F 95% 30.48 in 10.0 mi Calm Calm - N/A   Clear
3:16 AM 23.7 °F - 22.6 °F 96% 30.48 in 10.0 mi Calm Calm - N/A   Clear
3:36 AM 24.3 °F - 23.2 °F 96% 30.48 in 10.0 mi Calm Calm - N/A   Clear
3:55 AM 24.3 °F - 23.0 °F 95% 30.47 in 10.0 mi Calm Calm - N/A   Clear
4:16 AM 24.6 °F - 23.5 °F 96% 30.47 in 10.0 mi Calm Calm - N/A   Clear
4:35 AM 24.4 °F - 23.0 °F 94% 30.47 in 10.0 mi Calm Calm - N/A   Scattered Clouds
4:56 AM 25.2 °F - 23.9 °F 95% 30.47 in 10.0 mi Calm Calm - N/A   Overcast
5:16 AM 24.6 °F - 23.2 °F 94% 30.47 in 10.0 mi Calm Calm - N/A   Mostly Cloudy
5:35 AM 24.6 °F - 23.2 °F 94% 30.47 in 10.0 mi Calm Calm - N/A   Scattered Clouds
5:56 AM 24.4 °F - 23.2 °F 95% 30.47 in 10.0 mi Calm Calm - N/A   Clear
6:15 AM 24.4 °F - 23.2 °F 95% 30.47 in 10.0 mi Calm Calm - N/A   Clear
6:35 AM 24.1 °F - 23.0 °F 96% 30.47 in 10.0 mi Calm Calm - N/A   Clear
6:56 AM 22.6 °F - 21.4 °F 95% 30.47 in 10.0 mi Calm Calm - N/A   Clear
7:15 AM 23.5 °F - 22.5 °F 96% 30.46 in 10.0 mi Calm Calm - N/A   Clear
7:36 AM 24.4 °F - 23.0 °F 94% 30.46 in 10.0 mi Calm Calm - N/A   Clear
7:56 AM 23.4 °F - 22.1 °F 95% 30.45 in 10.0 mi Calm Calm - N/A   Clear
8:15 AM 23.9 °F - 22.6 °F 95% 30.45 in 10.0 mi Calm Calm - N/A   Clear
8:36 AM 23.7 °F - 22.5 °F 95% 30.45 in 10.0 mi Calm Calm - N/A   Scattered Clouds
8:55 AM 24.6 °F - 23.4 °F 95% 30.46 in 10.0 mi Calm Calm - N/A   Scattered Clouds
9:16 AM 25.3 °F - 23.9 °F 94% 30.47 in 10.0 mi Calm Calm - N/A   Scattered Clouds
9:36 AM 27.9 °F - 26.4 °F 94% 30.46 in 10.0 mi Calm Calm - N/A   Scattered Clouds
9:55 AM 29.5 °F - 27.5 °F 92% 30.46 in 10.0 mi Calm Calm - N/A   Clear
10:16 AM 31.8 °F - 30.0 °F 93% 30.45 in 10.0 mi Calm Calm - N/A   Clear
10:36 AM 34.0 °F - 29.8 °F 85% 30.45 in 10.0 mi Calm Calm - N/A   Clear
10:55 AM 35.6 °F - 29.1 °F 77% 30.45 in 10.0 mi Calm Calm - N/A   Clear
11:16 AM 36.5 °F - 28.6 °F 73% 30.45 in 10.0 mi Calm Calm - N/A   Scattered Clouds
11:35 AM 37.6 °F - 29.5 °F 73% 30.44 in 10.0 mi Calm Calm - N/A   Mostly Cloudy
11:55 AM 38.3 °F 35.9 °F 29.7 °F 71% 30.44 in 10.0 mi SE 3.5 mph - N/A   Mostly Cloudy
12:16 PM 39.7 °F 34.3 °F 29.7 °F 67% 30.43 in 10.0 mi ESE 8.1 mph - N/A   Overcast
12:35 PM 39.9 °F 35.1 °F 29.3 °F 66% 30.43 in 10.0 mi East 6.9 mph - N/A   Mostly Cloudy
12:55 PM 39.6 °F 34.7 °F 28.4 °F 64% 30.42 in 10.0 mi SE 6.9 mph - N/A   Overcast
1:16 PM 38.7 °F 33.6 °F 27.7 °F 65% 30.41 in 10.0 mi SE 6.9 mph - N/A   Overcast
1:35 PM 38.3 °F 31.9 °F 27.5 °F 65% 30.40 in 10.0 mi SE 9.2 mph - N/A   Overcast
1:56 PM 38.5 °F 33.4 °F 26.6 °F 62% 30.39 in 10.0 mi SSE 6.9 mph - N/A   Overcast
2:16 PM 38.1 °F 34.6 °F 25.5 °F 61% 30.39 in 10.0 mi SSE 4.6 mph - N/A   Overcast
2:35 PM 37.9 °F 35.5 °F 25.5 °F 61% 30.38 in 10.0 mi South 3.5 mph - N/A   Overcast
2:56 PM 38.3 °F 35.9 °F 26.2 °F 62% 30.37 in 10.0 mi SE 3.5 mph - N/A   Overcast
3:16 PM 38.3 °F 35.9 °F 27.0 °F 64% 30.36 in 10.0 mi SE 3.5 mph - N/A   Overcast
3:35 PM 38.5 °F 36.1 °F 27.1 °F 64% 30.35 in 10.0 mi ESE 3.5 mph - N/A   Overcast
3:56 PM 38.5 °F - 27.3 °F 64% 30.35 in 10.0 mi Calm Calm - N/A   Overcast
4:15 PM 38.7 °F - 27.5 °F 64% 30.34 in 10.0 mi Calm Calm - N/A   Overcast
4:35 PM 39.0 °F - 28.2 °F 65% 30.34 in 10.0 mi Calm Calm - N/A   Overcast
4:55 PM 39.2 °F - 28.4 °F 65% 30.33 in 10.0 mi Calm Calm - N/A   Overcast
5:15 PM 39.0 °F - 28.4 °F 66% 30.33 in 10.0 mi Calm Calm - N/A   Overcast
5:35 PM 38.8 °F - 28.8 °F 67% 30.32 in 10.0 mi Calm Calm - N/A   Overcast
5:55 PM 38.7 °F - 29.1 °F 69% 30.31 in 10.0 mi Calm Calm - N/A   Overcast
6:16 PM 38.3 °F - 29.1 °F 70% 30.31 in 10.0 mi Calm Calm - N/A   Overcast
6:35 PM 37.9 °F - 30.0 °F 73% 30.30 in 10.0 mi Calm Calm - N/A   Drizzle
6:56 PM 37.6 °F 34.0 °F 32.4 °F 81% 30.30 in 10.0 mi SSW 4.6 mph - N/A   Drizzle
7:16 PM 37.4 °F 34.9 °F 33.4 °F 86% 30.29 in 7.0 mi South 3.5 mph - N/A   Drizzle
7:35 PM 36.7 °F 34.1 °F 33.8 °F 89% 30.29 in 7.0 mi SSE 3.5 mph - N/A Rain Rain
7:56 PM 36.5 °F 33.9 °F 34.0 °F 91% 30.28 in 7.0 mi SSE 3.5 mph - N/A   Drizzle
8:15 PM 36.5 °F - 34.2 °F 91% 30.28 in 10.0 mi Calm Calm - N/A   Drizzle
8:35 PM 36.5 °F - 34.7 °F 93% 30.28 in 10.0 mi Calm Calm - N/A   Drizzle
8:56 PM 36.5 °F - 34.7 °F 93% 30.27 in 10.0 mi Calm Calm - N/A   Overcast
9:15 PM 36.7 °F - 35.1 °F 94% 30.25 in 10.0 mi Calm Calm - N/A   Overcast
9:36 PM 37.0 °F - 35.2 °F 93% 30.25 in 10.0 mi Calm Calm - N/A   Drizzle
9:56 PM 37.4 °F 34.9 °F 35.2 °F 92% 30.24 in 10.0 mi SE 3.5 mph - N/A   Drizzle
10:15 PM 37.4 °F - 35.6 °F 93% 30.23 in 10.0 mi Calm Calm - N/A Rain Light Rain
10:36 PM 37.4 °F - 35.6 °F 93% 30.23 in 10.0 mi Calm Calm - N/A   Drizzle
10:55 PM 37.4 °F - 35.8 °F 94% 30.22 in 10.0 mi Calm Calm - N/A   Drizzle
11:15 PM 37.0 °F - 35.8 °F 95% 30.22 in 10.0 mi Calm Calm - N/A Rain Light Rain
11:35 PM 37.0 °F - 36.0 °F 96% 30.22 in 10.0 mi Calm Calm - N/A   Light Drizzle
11:55 PM 37.4 °F - 36.1 °F 95% 30.22 in 10.0 mi Calm Calm - N/A   Light Drizzle